Flag for Germany Weather past 2 weeks in Germering, Bavaria, Germany

Now
34 °F

Scattered clouds.


Feels Like: 26 °F
Forecast: 30 / 36 °F
Wind: 10 mph from Southwest

Location: Oberpfaffenhofen

Current Time: Mar 4, 2015 at 10:07:30 AM

Latest Report: Mar 4, 2015 at 9:20 AM


Visibility: N/A

Pressure: 30.27 "Hg

Humidity: 87%

Dew point: 30 °F

Location of GermeringLocation

Historic Weather in Germering — Graph

°F

Germering temperature yesterday

Maximum temperature yesterday: 45 °F (at 2:20 PM)
Minimum temperature yesterday: 32 °F (at 6:50 AM)
Average temperature yesterday: 40 °F

Past Weeks' High & Low Weather Summary

 TemperatureHumidityPressure
High57 °F (Feb 20, 3:20 PM)100% (Feb 17, 10:50 AM)30.66 "Hg (Feb 17, 10:50 AM)
Low21 °F (Feb 27, 6:50 AM)21% (Feb 20, 3:20 PM)29.47 "Hg (Feb 21, 12:50 PM)
Average35 °F77%30.06 "Hg
* Reported Feb 17 8:20 AM — Mar 4 8:50 AM, Germering, Weather by CustomWeather, © 2015

Note: Actual official high and low records may vary slightly from our data, if they occured in-between our weather recording intervals... More about our weather records

Advertising

Germering weather history for previous 24 hours

 ConditionsComfort  
Time TempWeatherWind HumidityBarometerVisibility
8:50 AM
Wed, Mar 4
32 °FBroken clouds.8 mph93%30.27 "HgN/A
8:20 AM32 °FBroken clouds.9 mph93%30.24 "HgN/A
7:50 AM32 °FBroken clouds.8 mph93%30.24 "HgN/A
7:20 AM32 °FBroken clouds.9 mph93%30.24 "HgN/A
6:50 AM32 °FPartly cloudy.9 mph100%30.24 "HgN/A
7:20 PM
Tue, Mar 3
36 °FClear.7 mph70%30.12 "Hg10 mi
6:50 PM37 °FClear.6 mph65%30.12 "Hg10 mi
6:20 PM41 °FClear.6 mph53%30.12 "Hg10 mi
5:50 PM41 °FSunny.6 mph57%30.12 "Hg10 mi
5:20 PM43 °FSunny.9 mph49%30.12 "Hg10 mi
4:50 PM45 °FSunny.12 mph42%30.12 "Hg10 mi
4:20 PM45 °FSunny.13 mph42%30.12 "Hg10 mi
3:50 PM45 °FPassing clouds.12 mph46%30.15 "HgN/A
3:20 PM45 °FPassing clouds.12 mph42%30.15 "HgN/A
2:50 PM45 °FScattered clouds.12 mph46%30.15 "HgN/A
2:20 PM45 °FScattered clouds.13 mph42%30.18 "HgN/A
1:50 PM43 °FScattered clouds.14 mph49%30.18 "HgN/A
1:20 PM43 °FPassing clouds.13 mph49%30.18 "HgN/A
12:50 PM43 °FPassing clouds.17 mph53%30.21 "HgN/A
12:20 PM43 °FPassing clouds.14 mph53%30.21 "HgN/A
11:50 AM41 °FPassing clouds.14 mph53%30.21 "HgN/A
11:20 AM41 °FSunny.17 mph57%30.21 "Hg10 mi
10:50 AM39 °FSunny.17 mph61%30.21 "Hg10 mi
10:20 AM39 °FSunny.15 mph61%30.21 "Hg10 mi
Weather by CustomWeather, © 2015

See weather overviewHow to use our weather pages